GW1193 Weather Reports


time (UTC)temp
C
wind
direction
speed
KPH
gust
KPH
rain 1hr
cm
rain 24hr
cm
rain mn
cm
humidity
%
barometer
mb
20260503181557 17 122 1.6 4.8 0.00 0.00 0.00 68 1014.5
20260503181051 17 316 1.6 8.0 0.00 0.00 0.00 71 1014.6
20260503180550 16 243 1.6 8.0 0.00 0.00 0.00 73 1014.5
20260503180105 16 291 1.6 6.4 0.00 0.00 0.00 74 1014.6
20260503175549 16 116 1.6 6.4 0.00 0.00 0.00 73 1014.7
20260503175050 15 167 0.0 6.4 0.00 0.00 0.00 75 1014.7
20260503174554 15 84 1.6 6.4 0.00 0.00 0.00 76 1014.7
20260503174051 15 315 1.6 4.8 0.00 0.00 0.00 75 1014.7
20260503173550 15 0 0.0 4.8 0.00 0.00 0.00 77 1014.6
20260503173142 15 304 1.6 4.8 0.00 0.00 0.00 77 1014.7
20260503172550 15 0 0.0 3.2 0.00 0.00 0.00 77 1014.7
20260503172050 15 299 0.0 3.2 0.00 0.00 0.00 76 1014.7
20260503171553 14 156 0.0 4.8 0.00 0.00 0.00 79 1014.6
20260503171050 14 293 1.6 4.8 0.00 0.00 0.00 78 1014.5
20260503170550 14 269 0.0 4.8 0.00 0.00 0.00 78 1014.6
20260503150548 12 0 0.0 1.6 0.00 0.00 0.00 87 1013.9
20260503131049 11 0 0.0 3.2 0.00 0.00 0.00 91 1012.6
20260503130549 11 0 0.0 3.2 0.00 0.00 0.00 91 1012.5
20260503130108 11 0 0.0 3.2 0.00 0.00 0.00 92 1012.5
20260503110556 11 0 0.0 3.2 0.00 0.00 0.00 90 1012.5
20260503100109 11 0 0.0 4.8 0.00 0.00 0.00 89 1012.6
20260503081558 11 0 0.0 1.6 0.00 0.00 0.00 90 1013.4
20260503081053 11 0 0.0 1.6 0.00 0.00 0.00 90 1013.5
20260503080556 11 0 0.0 1.6 0.00 0.00 0.00 90 1013.4
20260503072554 11 0 0.0 1.6 0.00 0.00 0.00 90 1013.4
20260503072053 11 125 0.0 1.6 0.00 0.00 0.00 90 1013.4
20260503071558 11 278 0.0 0.0 0.00 0.00 0.00 90 1013.3
20260503071053 11 0 0.0 1.6 0.00 0.00 0.00 90 1013.3
20260503070553 11 0 0.0 1.6 0.00 0.00 0.00 90 1013.4
20260503055052 11 0 0.0 0.0 0.00 0.00 0.00 90 1013.9
20260503054556 11 0 0.0 0.0 0.00 0.00 0.00 90 1014.0
20260503054049 11 0 0.0 0.0 0.00 0.00 0.00 90 1014.0
20260503053551 11 0 0.0 0.0 0.00 0.00 0.00 90 1013.9
20260503053102 11 0 0.0 0.0 0.00 0.00 0.00 90 1013.9
20260503052549 11 0 0.0 4.8 0.00 0.00 0.00 90 1013.9
20260503052053 11 0 0.0 4.8 0.00 0.00 0.00 90 1014.0
20260503051555 11 0 0.0 4.8 0.00 0.00 0.00 90 1013.9
20260503051049 11 0 0.0 0.0 0.00 0.00 0.00 90 1013.8
20260503050549 11 0 0.0 0.0 0.00 0.00 0.00 90 1014.0
20260503050058 11 0 0.0 0.0 0.00 0.00 0.00 90 1014.1
20260503045549 11 0 0.0 1.6 0.00 0.00 0.00 90 1014.0
20260503045052 11 0 0.0 4.8 0.00 0.00 0.00 90 1014.0
20260503044557 11 0 0.0 4.8 0.00 0.00 0.00 90 1014.0
20260503044052 11 302 0.0 4.8 0.00 0.00 0.00 90 1014.0
20260503043549 11 0 0.0 6.4 0.00 0.00 0.00 90 1014.0
20260503043101 11 0 0.0 6.4 0.00 0.00 0.00 90 1014.0
20260503042549 11 260 0.0 4.8 0.00 0.00 0.00 90 1013.8
20260503042049 11 0 0.0 0.0 0.00 0.00 0.00 90 1013.9
20260503041553 11 0 0.0 1.6 0.00 0.00 0.00 90 1013.9
20260503041049 11 0 0.0 1.6 0.00 0.00 0.00 90 1013.9
20260503040549 11 0 0.0 6.4 0.00 0.00 0.00 90 1013.8
20260503040056 11 269 0.0 6.4 0.00 0.00 0.00 90 1013.7
20260503035549 11 0 0.0 6.4 0.00 0.00 0.00 90 1013.6
20260503035049 11 0 0.0 4.8 0.00 0.00 0.00 90 1013.6
20260503034555 11 0 1.6 4.8 0.00 0.00 0.00 90 1013.6
20260503034052 11 330 0.0 3.2 0.00 0.00 0.00 91 1013.6
20260503033549 11 271 0.0 1.6 0.00 0.00 0.00 90 1013.5
20260503033058 11 0 0.0 1.6 0.00 0.00 0.00 91 1013.4
20260503032548 11 0 0.0 6.4 0.00 0.00 0.00 90 1013.2
20260503032049 11 0 0.0 6.4 0.00 0.00 0.00 90 1013.2
20260503031608 11 294 0.0 6.4 0.00 0.00 0.00 90 1013.1
20260503031049 11 0 0.0 6.4 0.00 0.00 0.00 89 1013.0
20260503030552 11 308 1.6 3.2 0.00 0.00 0.00 89 1013.0
20260503030051 11 0 0.0 1.6 0.00 0.00 0.00 89 1013.0
20260503025551 11 0 0.0 1.6 0.00 0.00 0.00 89 1013.0
20260503025049 12 0 0.0 1.6 0.00 0.00 0.00 89 1013.0
20260503024554 12 6 0.0 1.6 0.00 0.00 0.00 88 1013.0
20260503024052 12 0 0.0 1.6 0.00 0.00 0.00 88 1012.9
20260503023552 12 0 0.0 1.6 0.00 0.00 0.00 88 1013.0
20260503023055 12 0 0.0 3.2 0.00 0.00 0.00 88 1013.0
20260503022549 12 0 0.0 3.2 0.00 0.00 0.00 87 1013.0
20260503022049 12 0 0.0 6.4 0.00 0.00 0.00 87 1013.0
20260503021551 12 266 0.0 8.0 0.00 0.00 0.00 87 1013.0
20260503021049 12 271 0.0 8.0 0.00 0.00 0.00 87 1013.0
20260503020549 12 0 1.6 4.8 0.00 0.00 0.00 86 1013.0
20260503020058 12 0 0.0 1.6 0.00 0.00 0.00 87 1013.1
20260503015550 12 0 0.0 6.4 0.00 0.00 0.00 87 1013.1
20260503015050 12 0 0.0 6.4 0.00 0.00 0.00 87 1013.1
20260503014558 12 280 0.0 4.8 0.00 0.00 0.00 87 1013.1
20260503014051 12 0 0.0 8.0 0.00 0.00 0.00 86 1013.2
20260503013552 12 251 0.0 8.0 0.00 0.00 0.00 86 1013.2
20260503013051 12 110 1.6 4.8 0.00 0.00 0.00 85 1013.2
20260503012550 12 268 0.0 6.4 0.00 0.00 0.00 84 1013.2
20260503012049 12 18 0.0 8.0 0.00 0.00 0.00 85 1013.3
20260503011605 12 267 3.2 8.0 0.00 0.00 0.00 84 1013.3
20260503011049 12 335 0.0 4.8 0.00 0.00 0.00 85 1013.3
20260503010551 12 0 0.0 6.4 0.00 0.00 0.00 86 1013.3
20260503010052 12 0 1.6 8.0 0.00 0.00 0.00 85 1013.4
20260503005549 12 282 1.6 8.0 0.00 0.00 0.00 84 1013.3
20260503005048 12 278 1.6 8.0 0.00 0.00 0.00 84 1013.4
20260503004614 12 279 3.2 8.0 0.00 0.00 0.00 84 1013.3
20260503004049 12 96 3.2 6.4 0.00 0.00 0.00 83 1013.3
20260503003550 13 278 0.0 6.4 0.00 0.00 0.00 83 1013.3
20260503003053 13 184 0.0 8.0 0.00 0.00 0.00 84 1013.3
20260503002549 13 268 1.6 8.0 0.00 0.00 0.00 83 1013.4
20260503002049 13 243 1.6 9.7 0.00 0.00 0.00 82 1013.5
20260503001554 13 67 0.0 9.7 0.00 0.00 0.00 81 1013.5
20260503001051 13 8 0.0 6.4 0.00 0.00 0.00 81 1013.5
20260503000551 13 304 1.6 6.4 0.00 0.00 0.00 81 1013.5
20260503000110 13 181 1.6 4.8 0.00 0.00 0.00 81 1013.6
20260502235549 13 46 1.6 11.3 0.00 0.00 0.00 80 1013.6
20260502235051 13 87 3.2 11.3 0.00 0.00 0.00 79 1013.6
20260502234559 13 282 3.2 11.3 0.00 0.00 0.00 79 1013.7
20260502234050 13 355 1.6 8.0 0.00 0.00 0.00 79 1013.7
20260502233552 13 147 1.6 8.0 0.00 0.00 0.00 79 1013.8
20260502233051 13 289 3.2 6.4 0.00 0.00 0.00 78 1013.7
20260502232549 13 261 1.6 9.7 0.00 0.00 0.00 79 1013.7
20260502232049 13 178 1.6 9.7 0.00 0.00 0.00 79 1013.7
20260502231615 14 261 1.6 8.0 0.00 0.00 0.00 76 1013.9
20260502231049 14 326 1.6 9.7 0.00 0.00 0.00 76 1014.0
20260502230552 14 304 1.6 9.7 0.00 0.00 0.00 77 1014.0
20260502230054 14 274 1.6 9.7 0.00 0.00 0.00 77 1014.2
20260502225550 14 245 1.6 9.7 0.00 0.00 0.00 77 1014.3
20260502225048 14 266 1.6 9.7 0.00 0.00 0.00 78 1014.3
20260502224557 14 270 3.2 9.7 0.00 0.00 0.00 76 1014.4
20260502224051 14 253 1.6 6.4 0.00 0.00 0.00 77 1014.4
20260502223552 14 330 1.6 6.4 0.00 0.00 0.00 78 1014.5
20260502223053 14 300 3.2 14.5 0.00 0.00 0.00 75 1014.6
20260502222550 14 295 1.6 14.5 0.00 0.00 0.00 77 1014.6
20260502222049 14 283 4.8 12.9 0.00 0.00 0.00 76 1014.6
20260502221558 15 307 3.2 12.9 0.00 0.00 0.00 76 1014.7
20260502221051 15 195 3.2 9.7 0.00 0.00 0.00 74 1014.7
20260502220549 15 291 1.6 8.0 0.00 0.00 0.00 75 1014.8
20260502220058 15 283 1.6 4.8 0.00 0.00 0.00 74 1014.9
20260502215548 15 334 1.6 6.4 0.00 0.00 0.00 75 1014.9
20260502215051 15 309 1.6 11.3 0.00 0.00 0.00 76 1014.9
20260502214558 15 328 1.6 11.3 0.00 0.00 0.00 75 1014.9
20260502214049 15 326 1.6 11.3 0.00 0.00 0.00 75 1014.9
20260502213551 15 309 1.6 9.7 0.00 0.00 0.00 76 1015.0
20260502213054 15 297 1.6 9.7 0.00 0.00 0.00 75 1015.0
20260502212550 15 238 1.6 9.7 0.00 0.00 0.00 75 1014.9
20260502212052 15 279 1.6 6.4 0.00 0.00 0.00 75 1015.0
20260502211559 15 282 1.6 6.4 0.00 0.00 0.00 77 1014.9
20260502211051 15 271 1.6 11.3 0.00 0.00 0.00 76 1015.0
20260502210551 15 310 1.6 11.3 0.00 0.00 0.00 78 1015.2
20260502210051 15 262 1.6 9.7 0.00 0.00 0.00 77 1015.2
20260502205554 15 290 3.2 9.7 0.00 0.00 0.00 76 1015.3
20260502205048 15 264 1.6 6.4 0.00 0.00 0.00 78 1015.3
20260502204553 15 337 0.0 8.0 0.00 0.00 0.00 79 1015.3
20260502204047 14 269 0.0 9.7 0.00 0.00 0.00 80 1015.3
20260502203553 13 277 3.2 9.7 0.00 0.00 0.00 80 1015.3
20260502203056 14 282 3.2 9.7 0.00 0.00 0.00 80 1015.4
20260502202552 13 289 1.6 9.7 0.00 0.00 0.00 81 1015.5
20260502202053 13 273 3.2 9.7 0.00 0.00 0.00 81 1015.5
20260502201604 14 306 4.8 9.7 0.00 0.00 0.00 79 1015.5
20260502201054 14 274 3.2 8.0 0.00 0.00 0.00 81 1015.6
20260502200553 14 286 1.6 8.0 0.00 0.00 0.00 80 1015.6
20260502200058 15 79 1.6 6.4 0.00 0.00 0.00 79 1015.5
20260502195556 15 306 0.0 6.4 0.00 0.00 0.00 81 1015.6
20260502195052 14 0 1.6 6.4 0.00 0.00 0.00 82 1015.5
20260502194612 13 163 1.6 6.4 0.00 0.00 0.00 83 1015.6
20260502194052 13 346 0.0 9.7 0.00 0.00 0.00 85 1015.5
20260502193553 13 46 3.2 9.7 0.00 0.00 0.00 85 1015.5
20260502193106 13 356 1.6 9.7 0.00 0.00 0.00 86 1015.6
20260502192554 12 347 1.6 8.0 0.00 0.00 0.00 87 1015.6
20260502192052 12 315 1.6 8.0 0.00 0.00 0.00 87 1015.5
20260502191601 12 349 1.6 8.0 0.00 0.00 0.00 87 1015.7
20260502191052 12 281 1.6 8.0 0.00 0.00 0.00 88 1015.6
20260502190553 12 0 1.6 6.4 0.00 0.00 0.00 88 1015.6
20260502190054 12 271 0.0 6.4 0.00 0.00 0.00 89 1015.6
20260502185554 12 191 1.6 6.4 0.00 0.00 0.00 89 1015.7
20260502185053 12 276 1.6 6.4 0.00 0.00 0.00 88 1015.6
20260502184559 13 328 1.6 6.4 0.00 0.00 0.00 88 1015.7
20260502184056 13 285 0.0 4.8 0.00 0.00 0.00 88 1015.6
20260502183553 13 259 0.0 1.6 0.00 0.00 0.00 89 1015.6
20260502183055 13 259 0.0 1.6 0.00 0.00 0.00 88 1015.5
20260502182553 13 0 0.0 3.2 0.00 0.00 0.00 87 1015.6
20260502182052 13 0 0.0 3.2 0.00 0.00 0.00 88 1015.5